FW7782 Weather Reports


time (UTC)temp
C
wind
direction
speed
KPH
gust
KPH
rain 1hr
cm
rain 24hr
cm
rain mn
cm
humidity
%
barometer
mb
20260507003054 15 23 6.4 9.7 0.00 0.00 0.00 85 1011.3
20260507001602 15 31 6.4 11.3 0.00 0.00 0.00 85 1011.4
20260507000122 15 37 8.0 9.7 0.00 0.00 0.00 85 1011.5
20260506234612 15 31 4.8 9.7 0.00 0.00 0.00 86 1011.7
20260506233053 16 33 4.8 11.3 0.00 0.00 0.00 86 1011.8
20260506231549 16 39 8.0 11.3 0.00 0.00 0.00 86 1011.7
20260506230100 16 37 4.8 8.0 0.00 0.00 0.00 86 1011.8
20260506224552 16 33 4.8 9.7 0.00 0.00 0.00 86 1011.8
20260506223051 16 29 4.8 8.0 0.00 0.00 0.00 86 1011.6
20260506221559 16 15 3.2 8.0 0.00 0.00 0.00 86 1011.7
20260506220052 17 32 3.2 8.0 0.00 0.00 0.00 84 1011.8
20260506214549 17 53 3.2 8.0 0.00 0.00 0.00 85 1011.9
20260506213056 17 87 4.8 11.3 0.00 0.00 0.00 84 1012.2
20260506211554 17 41 1.6 9.7 0.00 0.00 0.00 84 1012.4
20260506210051 17 92 3.2 8.0 0.00 0.00 0.00 84 1012.1
20260506204551 17 96 4.8 8.0 0.00 0.00 0.00 84 1012.0
20260506203054 17 54 4.8 9.7 0.00 0.00 0.00 84 1012.0
20260506201552 17 72 4.8 11.3 0.00 0.00 0.00 84 1011.8
20260506200047 17 66 6.4 12.9 0.00 0.00 0.00 84 1011.5
20260506194556 17 87 6.4 12.9 0.00 0.00 0.00 83 1011.3
20260506193052 17 98 4.8 12.9 0.00 0.00 0.00 83 1011.2
20260506191559 17 89 4.8 12.9 0.00 0.00 0.00 83 1011.0
20260506190052 17 103 8.0 12.9 0.00 0.00 0.00 83 1010.9
20260506184556 17 68 8.0 16.1 0.00 0.00 0.00 82 1010.7
20260506183101 18 79 11.3 20.9 0.00 0.00 0.00 82 1010.7
20260506181603 18 72 12.9 20.9 0.00 0.00 0.00 81 1010.6
20260506180054 18 100 8.0 22.5 0.00 0.00 0.00 81 1010.6
20260506174551 18 124 9.7 19.3 0.00 0.00 0.00 80 1010.6
20260506173119 18 70 9.7 22.5 0.00 0.00 0.00 80 1010.7
20260506171549 18 117 12.9 29.0 0.00 0.00 0.00 79 1010.8
20260506170104 18 85 16.1 24.1 0.00 0.00 0.00 77 1010.5
20260506164552 18 116 16.1 27.4 0.00 0.00 0.00 78 1010.4
20260506163059 18 76 12.9 29.0 0.00 0.00 0.00 77 1010.5
20260506161555 18 113 17.7 27.4 0.00 0.00 0.00 78 1010.3
20260506160059 19 76 14.5 25.7 0.00 0.00 0.00 76 1010.6
20260506154610 19 85 14.5 29.0 0.00 0.00 0.00 76 1010.1
20260506153059 19 121 16.1 32.2 0.00 0.00 0.00 77 1010.4
20260506151554 19 148 16.1 32.2 0.00 0.00 0.00 75 1010.4
20260506150051 19 95 16.1 32.2 0.00 0.00 0.00 75 1010.5
20260506144555 19 44 12.9 30.6 0.00 0.00 0.00 74 1010.7
20260506143051 20 70 17.7 25.7 0.00 0.00 0.00 73 1010.9
20260506141549 19 91 12.9 27.4 0.00 0.00 0.00 75 1011.0
20260506140048 19 74 16.1 30.6 0.00 0.00 0.00 74 1011.1
20260506134552 19 94 20.9 35.4 0.00 0.00 0.00 76 1010.9
20260506133116 20 110 17.7 33.8 0.00 0.00 0.00 75 1011.1
20260506131552 20 72 19.3 32.2 0.00 0.00 0.00 76 1011.3
20260506130110 19 129 17.7 32.2 0.00 0.00 0.00 76 1011.3
20260506124551 20 142 16.1 27.4 0.00 0.00 0.00 75 1011.3
20260506123047 19 125 19.3 29.0 0.00 0.00 0.00 78 1011.3
20260506121552 20 186 16.1 30.6 0.00 0.00 0.00 77 1011.4
20260506120054 20 101 16.1 27.4 0.00 0.00 0.00 76 1011.4
20260506114553 20 147 17.7 30.6 0.00 0.00 0.00 73 1011.6
20260506113048 20 58 16.1 27.4 0.00 0.00 0.00 73 1011.8
20260506111547 20 45 16.1 33.8 0.00 0.00 0.00 75 1011.6
20260506110054 20 129 12.9 30.6 0.00 0.00 0.00 74 1011.8
20260506104614 20 103 14.5 27.4 0.00 0.00 0.00 75 1011.9
20260506103103 20 48 16.1 25.7 0.00 0.00 0.00 72 1011.8
20260506101551 20 70 12.9 29.0 0.00 0.00 0.00 72 1011.9
20260506100051 20 128 14.5 27.4 0.00 0.00 0.00 72 1012.0
20260506094553 20 13 12.9 24.1 0.00 0.00 0.00 71 1011.9
20260506093052 20 68 11.3 22.5 0.00 0.00 0.00 71 1011.8
20260506091548 20 41 11.3 25.7 0.00 0.00 0.00 70 1011.6
20260506090051 20 51 12.9 24.1 0.00 0.00 0.00 69 1011.3
20260506084551 20 79 9.7 22.5 0.00 0.00 0.00 71 1011.4
20260506083051 20 47 8.0 20.9 0.00 0.00 0.00 70 1011.4
20260506081557 19 53 11.3 17.7 0.00 0.00 0.00 74 1011.4
20260506073056 18 341 3.2 11.3 0.00 0.00 0.00 77 1011.3
20260506071608 18 49 4.8 12.9 0.00 0.00 0.00 77 1011.2
20260506061556 16 8 1.6 6.4 0.00 0.00 0.00 83 1011.2
20260506044607 14 21 9.7 14.5 0.00 0.00 0.00 79 1010.3
20260506043056 14 32 6.4 8.0 0.00 0.00 0.00 80 1010.4
20260506041556 15 355 3.2 4.8 0.00 0.00 0.00 80 1010.3
20260506040053 15 0 0.0 0.0 0.00 0.00 0.00 83 1010.2
20260506034552 15 0 0.0 3.2 0.00 0.00 0.00 84 1010.3
20260506033053 15 0 3.2 6.4 0.00 0.00 0.00 85 1010.3
20260506031557 15 0 0.0 1.6 0.00 0.00 0.00 84 1010.3
20260506030056 15 265 0.0 4.8 0.00 0.00 0.00 84 1010.2
20260506024552 15 272 0.0 4.8 0.00 0.00 0.00 84 1010.1
20260506023050 15 0 0.0 4.8 0.00 0.00 0.00 84 1010.0
20260506021556 15 0 0.0 3.2 0.00 0.00 0.00 86 1010.1
20260506020044 15 319 0.0 3.2 0.00 0.00 0.00 88 1010.2
20260506014553 15 336 0.0 1.6 0.00 0.00 0.00 86 1010.2
20260506013052 15 336 0.0 3.2 0.00 0.00 0.00 85 1010.2
20260506011553 15 349 3.2 4.8 0.00 0.00 0.00 83 1010.3
20260506010057 16 0 0.0 0.0 0.00 0.00 0.00 83 1010.4
20260506004551 16 0 0.0 3.2 0.00 0.00 0.00 78 1010.4